Regional Weather Roundup
Issued by NWS

Home | Current Version | Previous Version | Text Only | Print | Product List | Glossary On
Versions: 1 2 3 4 5 6 7 8 9 10 11 12 13 14 15 16 17 18 19 20 21 22 23 24 25 26 27 28 29 30 31 32 33 34 35 36 37 38 39 40 41 42 43 44 45 46 47
000
ASUS45 KBOU 200910
RWRCO

WEATHER ROUNDUP FOR COLORADO
NATIONAL WEATHER SERVICE DENVER/BOULDER CO
300 AM MDT FRI APR 20 2018

NOTE: "FAIR" INDICATES FEW OR NO CLOUDS BELOW 12000 FEET WITH NO
SIGNIFICANT WEATHER AND/OR OBSTRUCTIONS TO VISIBILITY.

COZ001>005-013-030-031-201000-
...NORTHWEST COLORADO...

CITY           SKY/WX    TMP DP  RH WIND       PRES   REMARKS
CRAIG          CLOUDY    48  34  58 E7        29.82F
HAYDEN         FAIR      48  31  51 SE10      29.83F
MEEKER         LGT RAIN  45  37  73 S7        29.84R
RANGELY        CLOUDY    51  33  51 W6        29.78R
RABBIT EARS PA FAIR      32  21  64 SE3       29.95S
STEAMBOAT SPGS FAIR      42  29  58 CALM      29.83F
WALDEN         FAIR      37  16  41 CALM      29.90F
$$

COZ006>008-011-201000-
...WEST CENTRAL VALLEYS...

CITY           SKY/WX    TMP DP  RH WIND       PRES   REMARKS
GRAND JUNCTION CLOUDY    58  17  20 S13G25    29.79R
MONTROSE       CLOUDY    45  35  68 SE3       29.86S
EAGLE          CLOUDY    51  30  44 N5        29.85F
RIFLE          CLOUDY    53  36  52 SE21      29.78R
DELTA          CLOUDY    54  31  40 SW5       29.84R
NUCLA          CLOUDY    50   9  18 S10       29.86F
$$

COZ017>023-064>068-201000-
...SOUTHWEST COLORADO...

CITY           SKY/WX    TMP DP  RH WIND       PRES   REMARKS
DURANGO        CLOUDY    47  11  23 W18       29.85F
CORTEZ         FAIR      46  11  24 S7        29.85F
PAGOSA SPRINGS CLOUDY    49  24  38 S16G23    29.88R
TELLURIDE      FLURRIES  34  23  65 W10       29.93R WCI  26
WOLF CREEK PAS CLOUDY    30  23  74 S20G35    29.99F WCI  18
$$

COZ009-010-012-014-032>034-037-058>063-201000-
...CENTRAL COLORADO...

CITY           SKY/WX    TMP DP  RH WIND       PRES   REMARKS
ASPEN          LGT RAIN  41  35  79 S7        29.87F
BUENA VISTA    CLOUDY    38  32  79 NW12      29.95F
COPPER MTN     NOT AVBL
BERTHOUD PASS  MOCLDY    27  14  59 S38G51    30.07F WCI   9
COTTONWOOD PAS LGT SNOW  37  32  81 SE18      29.99F
GUNNISON       LGT RAIN  38  34  85 E20       29.90F
GRANBY         FAIR      35  22  59 SE3       29.92F
KREMMLING      MOCLDY    48  21  34 N3        29.87F
LEADVILLE      LGT SNOW  30  30 100 S5        29.97F FOG     WCI  25
MONARCH PASS   LGT SNOW  28  23  80 S16G35    30.13F WCI  17
SALIDA         CLOUDY    50  22  33 S12G23    30.00F
SUNLIGHT       SNOW      30  28  93 E8        29.96F VSB 1/2 WCI  23
WILKERSON PASS CLOUDY    32  16  51 SW7       30.09S WCI  26
$$

COZ069>075-201000-
...SAN LUIS VALLEY/SANGRE DE CRISTO MOUNTAINS...

CITY           SKY/WX    TMP DP  RH WIND       PRES   REMARKS
ALAMOSA        FAIR      42  23  46 S9        29.91F
DEL NORTE      LGT RAIN  45  25  45 E10G24    29.89F
LA VETA PASS   FAIR      41  23  48 S30G44    30.11F
SAGUACHE       NOT AVBL
$$

COZ035-036-038>040-201000-
...NORTHERN COLORADO FRONT RANGE...

CITY           SKY/WX    TMP DP  RH WIND       PRES   REMARKS
DENVER INTL AP FAIR      44  21  40 S15G23    29.91S
AURORA         MOCLDY    47  22  37 S18G25    29.90S
FRONT RANGE AP FAIR      45  22  40 SE24G31   29.92S
ERIE MUNI ARPT FAIR      42  25  50 NW8       29.97R
BOULDER MUN AP FAIR      45  25  45 N12G17    29.91S
CENTENNIAL     MOCLDY    46  24  42 S15       29.90S
BROOMFIELD     FAIR      43  23  45 NW20      29.91S
FORT COLLINS   FAIR      40  26  57 N9        29.94F
LONGMONT       FAIR      46  26  46 N14G20    29.93S
$$

COZ041-046-047-076>085-087-088-201000-
...PIKES PEAK/PALMER DIVIDE AND SOUTHERN FOOTHILLS...

CITY           SKY/WX    TMP DP  RH WIND       PRES   REMARKS
COLO. SPRINGS  FAIR      46  21  37 SE17      29.96F
A. F. ACADEMY  FAIR      41  20  44 S8        29.96F
SCHRIEVER AFB  NOT AVBL
CHEYENNE MTN   FAIR      44  21  40 S13G20    29.93F
ELLICOTT         N/A    N/A N/A N/A S25G33    29.95F
FALCON         FAIR      41  18  39 SE15G21   29.99F
FORT CARSON    FAIR      46  21  37 SE6       29.94F
LIMON          FAIR      39  24  55 SE28G39   30.00F
MONUMENT HILL  FAIR      37  21  52 SE24G31   29.95F
CANON CITY     FAIR      54  27  35 NE17G23   29.87F
WALSENBURG     NOT AVBL
TRINIDAD       FAIR      51  18  27 S23G30    29.96F
$$

COZ042>045-048>051-090-091-201000-
...NORTHEAST COLORADO...

CITY           SKY/WX    TMP DP  RH WIND       PRES   REMARKS
GREELEY ARPT   FAIR      43  24  47 E18G25    29.94F
AKRON          FAIR      38  26  62 SE21G32   30.00F
BURLINGTON     FAIR      40  26  57 SE24G40   30.09F
WRAY           FAIR      43  28  56 SE25G37   30.11F
YUMA           FAIR      37  27  65 SE24G30   30.06F
STERLING       NOT AVBL
HOLYOKE        FAIR      41  28  60 SE20G28   30.12F
FORT MORGAN    FAIR      39  24  54 E13       30.00S
$$

COZ086-089-092>099-201000-
...SOUTHEAST COLORADO...

CITY           SKY/WX    TMP DP  RH WIND       PRES   REMARKS
PUEBLO         FAIR      57  24  28 SE14G28   29.89F
LA JUNTA       FAIR      54  23  30 S22G33    30.01F
LAMAR          FAIR      47  25  42 SE18G26   30.07F
SPRINGFIELD      N/A     44  26  49 S26G36    30.09R
$$




USA.gov is the U.S. government's official web portal to all federal, state and local government web resources and services.